Weather History for Hurlburt Field, FL

Change the Weather History Date:

Monday, March 19, 2012

  Actual Average Record
Temperature  
Mean Temperature 68 °F -  
Max Temperature 76 °F 67 °F 82 °F (2004)
Min Temperature 60 °F 49 °F 40 °F (2007)
Cooling Degree Days 2    
Growing Degree Days 18 (Base 50)    
Moisture  
Dew Point 61 °F    
Average Humidity 74    
Maximum Humidity 88    
Minimum Humidity 57    
Precipitation  
Precipitation 0.00 in - - ()
Sea Level Pressure  
Sea Level Pressure 30.12 in    
Wind  
Wind Speed 6 mph (SE)    
Max Wind Speed 14 mph    
Max Gust Speed -    
Visibility 8 miles    
Events Fog , Rain    
Averages and records for this station are not official NWS values.
T = Trace of Precipitation, MM = Missing Value Source: NWS Daily Summary

Daily Weather History Graph

Daily Weather History Graph

Search for Another Location

Airport:

Trip Planner

Search our weather history database for the weather conditions in past years. The results will help you decide how hot, cold, wet, or windy it might be!

Date:

Astronomy

Mar. 19, 2012 Rise Set
Actual Time 6:51 AM CDT 6:57 PM CDT
Civil Twilight 6:27 AM CDT 7:21 PM CDT
Nautical Twilight 5:59 AM CDT 7:49 PM CDT
Astronomical Twilight 5:31 AM CDT 8:18 PM CDT
Moon 4:52 AM CDT (3/19) 4:33 PM CDT (3/19)
Length of Visible Light 12h 54m
Length of Day
12h 06m
Waning Crescent, 8% of the Moon is Illuminated
Mar 19
Waning Crescent
Mar 22
New
Mar 30
First Quarter
Apr 6
Full
Apr 13
Last Quarter

Hourly Weather History & Observations

Time (CDT) Temp. Dew Point Humidity Pressure Visibility Wind Dir Wind Speed Gust Speed Precip Events Conditions
12:11 AM 60.8 °F 57.2 °F 88% 30.16 in 0.5 mi North 3.5 mph - N/A Fog Fog
12:56 AM 60.8 °F 55.4 °F 82% 30.16 in 0.4 mi North 2.3 mph - N/A Fog Fog
1:57 AM 60.8 °F 55.4 °F 82% 30.15 in 0.4 mi NNE 2.3 mph - N/A   Mostly Cloudy
2:58 AM 60.8 °F 55.4 °F 82% 30.12 in 0.2 mi North 1.2 mph - N/A   Haze
3:55 AM 60.8 °F 55.4 °F 82% 30.12 in 0.2 mi NNE 1.2 mph - N/A Fog Fog
4:55 AM - - N/A% - - North 2.3 mph - N/A   Unknown
5:31 AM 60.8 °F 55.4 °F 82% 30.12 in 0.2 mi North 2.3 mph - N/A   Mostly Cloudy
5:59 AM 64.4 °F 57.2 °F 77% 30.12 in 0.2 mi NNE 2.3 mph - N/A   Haze
6:55 AM 64.4 °F 55.4 °F 73% 30.13 in 0.2 mi NNE 1.2 mph - N/A Fog Fog
7:25 AM 64.4 °F 57.2 °F 77% 30.15 in 0.5 mi NNW 1.2 mph - N/A Fog Fog
7:56 AM 66.2 °F 57.2 °F 73% 30.16 in 0.5 mi Calm Calm - N/A Fog Fog
8:19 AM 66.2 °F 57.2 °F 73% 30.17 in 3.0 mi ESE 10.4 mph - N/A   Mostly Cloudy
8:38 AM 66.2 °F 57.2 °F 73% 30.17 in 10.0 mi ESE 10.4 mph - N/A   Mostly Cloudy
8:56 AM 66.2 °F 57.2 °F 73% 30.17 in 10.0 mi SE 10.4 mph - N/A   Mostly Cloudy
9:25 AM 68.0 °F 59.0 °F 73% 30.17 in 10.0 mi ESE 10.4 mph - N/A   Scattered Clouds
9:55 AM 68.5 °F 59.5 °F 73% 30.18 in 10.0 mi SE 10.4 mph - N/A   Clear
10:55 AM 70.3 °F 61.9 °F 74% 30.18 in 10.0 mi ESE 11.5 mph - N/A   Clear
11:53 AM 75.2 °F 59.0 °F 57% 30.16 in 10.0 mi ESE 12.7 mph - N/A   Light Drizzle
11:55 AM 74.3 °F 59.7 °F 60% 30.16 in 10.0 mi ESE 11.5 mph - 0.00 in   Light Drizzle
12:02 PM 75.2 °F 59.0 °F 57% 30.16 in 10.0 mi ESE 9.2 mph - N/A   Clear
12:26 PM 75.2 °F 60.8 °F 61% 30.16 in 10.0 mi SE 11.5 mph - N/A Rain Light Rain
12:29 PM 75.2 °F 60.8 °F 61% 30.15 in 10.0 mi ESE 11.5 mph - N/A   Clear
12:55 PM 75.2 °F 61.2 °F 62% 30.15 in 10.0 mi SE 11.5 mph - 0.00 in   Clear
1:55 PM 75.4 °F 62.8 °F 65% 30.14 in 10.0 mi SE 11.5 mph - N/A   Clear
2:07 PM 75.2 °F 62.6 °F 65% 30.13 in 10.0 mi SSE 11.5 mph - N/A   Light Drizzle
2:09 PM 75.2 °F 62.6 °F 65% 30.13 in 10.0 mi SSE 12.7 mph - N/A   Clear
2:35 PM 75.2 °F 64.4 °F 69% 30.13 in 10.0 mi SSE 12.7 mph - N/A Rain Light Rain
2:38 PM 75.2 °F 64.4 °F 69% 30.13 in 10.0 mi SSE 13.8 mph - N/A   Clear
2:55 PM 73.8 °F 64.0 °F 72% 30.12 in 10.0 mi SE 11.5 mph - 0.00 in   Clear
3:31 PM 75.2 °F 64.4 °F 69% 30.11 in 10.0 mi SSE 10.4 mph - N/A   Light Drizzle
3:39 PM 75.2 °F 64.4 °F 69% 30.11 in 10.0 mi SSE 10.4 mph - N/A   Clear
3:44 PM 75.2 °F 64.4 °F 69% 30.11 in 10.0 mi SSE 11.5 mph - N/A Rain Light Rain
3:55 PM 74.8 °F 64.6 °F 70% 30.11 in 10.0 mi SSE 11.5 mph - 0.00 in   Light Drizzle
3:59 PM 75.2 °F 64.4 °F 69% 30.11 in 10.0 mi SSE 11.5 mph - N/A   Clear
4:55 PM 72.9 °F 64.6 °F 75% 30.10 in 10.0 mi South 8.1 mph - 0.00 in   Clear
5:27 PM 73.4 °F 64.4 °F 73% 30.09 in 10.0 mi South 8.1 mph - N/A Rain Light Rain
5:29 PM 73.4 °F 64.4 °F 73% 30.09 in 10.0 mi SSE 8.1 mph - N/A   Clear
5:55 PM 71.6 °F 64.6 °F 78% 30.09 in 10.0 mi South 8.1 mph - 0.00 in   Clear
6:03 PM 71.6 °F 64.4 °F 78% 30.09 in 10.0 mi South 8.1 mph - N/A Rain Light Rain
6:09 PM 71.6 °F 64.4 °F 78% 30.09 in 10.0 mi SSE 9.2 mph - N/A   Clear
6:29 PM 71.6 °F 64.4 °F 78% 30.09 in 10.0 mi SSE 6.9 mph - N/A   Light Drizzle
6:48 PM 69.8 °F 64.4 °F 83% 30.09 in 10.0 mi SSE 6.9 mph - N/A   Clear
6:55 PM 70.3 °F 64.6 °F 82% 30.09 in 10.0 mi SE 6.9 mph - 0.00 in   Clear
7:01 PM 69.8 °F 64.4 °F 83% 30.09 in 10.0 mi SE 6.9 mph - N/A Rain Light Rain
7:03 PM 69.8 °F 64.4 °F 83% 30.09 in 10.0 mi SE 5.8 mph - N/A   Clear
7:31 PM 69.8 °F 64.4 °F 83% 30.09 in 10.0 mi SE 4.6 mph - N/A   Light Drizzle
7:33 PM 69.8 °F 64.4 °F 83% 30.09 in 10.0 mi SE 4.6 mph - N/A   Clear
7:55 PM 69.4 °F 64.2 °F 83% 30.09 in 10.0 mi SE 5.8 mph - 0.00 in   Clear
8:55 PM 69.1 °F 63.9 °F 83% 30.09 in 10.0 mi SE 5.8 mph - N/A   Clear
9:55 PM 68.5 °F 63.0 °F 82% 30.09 in 10.0 mi SE 6.9 mph - N/A   Clear
10:55 PM 68.2 °F 62.6 °F 82% 30.07 in 10.0 mi SE 5.8 mph - N/A   Clear
11:55 PM 68.0 °F 62.2 °F 82% 30.06 in 10.0 mi SE 4.6 mph - N/A   Clear